FW9743 Weather Reports


Display with metric or nautical units.
time (UTC)temp
F
wind
direction
speed
MPH
gust
MPH
rain 1hr
in
rain 24hr
in
rain mn
in
humidity
%
barometer
mb
20260507064555 63 111 1.0 4.0 0.00 0.00 0.00 81 1014.2
20260507063051 62 157 0.0 3.0 0.00 0.00 0.00 83 1014.3
20260507061547 61 0 0.0 2.0 0.00 0.00 0.00 86 1014.3
20260507060045 62 159 2.0 15.0 0.00 0.00 0.00 86 1014.3
20260507054605 61 0 0.0 3.0 0.00 0.00 0.00 84 1014.0
20260507053058 61 0 0.0 3.0 0.00 0.00 0.00 83 1013.8
20260507051556 61 233 0.0 4.0 0.00 0.00 0.00 86 1013.7
20260507050053 61 240 1.0 4.0 0.00 0.00 0.00 89 1013.8
20260507044556 60 172 2.0 6.0 0.00 0.00 0.00 89 1013.5
20260507043052 60 182 2.0 6.0 0.00 0.00 0.00 88 1013.6
20260507041601 60 167 3.0 8.0 0.00 0.00 0.00 88 1013.5
20260507040053 60 155 3.0 6.0 0.00 0.00 0.00 86 1013.1
20260507034545 60 0 0.0 2.0 0.00 0.00 0.00 86 1012.9
20260507033048 60 0 0.0 1.0 0.00 0.00 0.00 86 1012.9
20260507031554 61 0 1.0 5.0 0.00 0.00 0.00 85 1012.8
20260507030051 61 0 0.0 3.0 0.00 0.00 0.00 85 1012.6
20260507024553 61 196 1.0 3.0 0.00 0.00 0.00 84 1012.6
20260507023051 61 0 1.0 3.0 0.00 0.00 0.00 83 1012.3
20260507021600 61 234 1.0 4.0 0.00 0.00 0.00 83 1012.1
20260507020107 62 243 1.0 6.0 0.00 0.00 0.00 82 1012.1
20260507014618 62 265 1.0 7.0 0.00 0.00 0.00 81 1012.1
20260507013051 62 276 0.0 6.0 0.00 0.00 0.00 81 1012.1
20260507011558 62 217 1.0 4.0 0.00 0.00 0.00 81 1011.9
20260507010050 61 222 1.0 4.0 0.00 0.00 0.00 82 1011.8
20260507004550 61 132 1.0 2.0 0.00 0.00 0.00 80 1011.9
20260507003049 61 132 1.0 2.0 0.00 0.00 0.00 79 1011.9
20260507001601 63 200 0.0 3.0 0.00 0.00 0.00 77 1011.8
20260507000118 63 246 1.0 3.0 0.00 0.00 0.00 76 1011.7
20260506234610 63 234 0.0 2.0 0.00 0.00 0.00 75 1011.8
20260506233051 63 240 2.0 4.0 0.00 0.00 0.00 72 1011.7
20260506231555 64 254 1.0 3.0 0.00 0.00 0.00 71 1011.6
20260506230059 64 238 1.0 4.0 0.00 0.00 0.00 70 1011.5
20260506224558 65 274 3.0 8.0 0.00 0.00 0.00 68 1011.3
20260506223055 65 234 3.0 7.0 0.00 0.00 0.00 67 1011.1
20260506221559 65 221 3.0 5.0 0.00 0.00 0.00 66 1011.0
20260506220049 65 196 2.0 6.0 0.00 0.00 0.00 66 1010.9
20260506214547 65 198 3.0 6.0 0.00 0.00 0.00 65 1010.6
20260506213050 66 187 2.0 5.0 0.00 0.00 0.00 65 1010.4
20260506211554 66 202 3.0 5.0 0.00 0.00 0.00 64 1010.4
20260506210048 65 196 2.0 5.0 0.00 0.00 0.00 64 1010.3
20260506204547 64 169 4.0 6.0 0.00 0.00 0.00 65 1010.2
20260506203052 64 140 5.0 8.0 0.00 0.00 0.00 63 1010.0
20260506201550 65 117 4.0 5.0 0.00 0.00 0.00 62 1010.0
20260506200153 66 145 3.0 4.0 0.00 0.00 0.00 59 1009.8
20260506194919 67 120 3.0 4.0 0.00 0.00 0.00 57 1009.7
20260506193259 68 123 2.0 3.0 0.00 0.00 0.00 57 1009.8
20260506192012 69 107 2.0 4.0 0.00 0.00 0.00 56 1009.6
20260506190047 69 110 2.0 2.0 0.00 0.00 0.00 54 1009.5
20260506184556 70 107 3.0 4.0 0.00 0.00 0.00 54 1009.5
20260506183101 71 73 3.0 4.0 0.00 0.00 0.00 53 1009.4
20260506181602 71 73 2.0 3.0 0.00 0.00 0.00 53 1009.1
20260506180052 72 88 2.0 4.0 0.00 0.00 0.00 52 1008.9
20260506174553 74 103 3.0 4.0 0.00 0.00 0.00 51 1008.8
20260506173119 76 115 3.0 4.0 0.00 0.00 0.00 46 1008.8
20260506171552 77 123 2.0 4.0 0.00 0.00 0.00 44 1008.8
20260506170104 77 136 3.0 6.0 0.00 0.00 0.00 45 1008.8
20260506164547 78 128 4.0 9.0 0.00 0.00 0.00 45 1009.0
20260506163056 78 152 2.0 7.0 0.00 0.00 0.00 44 1009.0
20260506161546 78 134 4.0 7.0 0.00 0.00 0.00 45 1009.2
20260506160047 79 167 2.0 5.0 0.00 0.00 0.00 42 1009.2
20260506154606 79 0 0.0 6.0 0.00 0.00 0.00 43 1009.2
20260506153047 79 149 5.0 10.0 0.00 0.00 0.00 42 1009.3
20260506151550 80 153 4.0 10.0 0.00 0.00 0.00 42 1009.5
20260506150048 80 141 9.0 14.0 0.00 0.00 0.00 41 1009.6
20260506144553 80 147 4.0 12.0 0.00 0.00 0.00 41 1009.8
20260506143049 80 144 7.0 11.0 0.00 0.00 0.00 39 1009.7
20260506141551 80 0 2.0 11.0 0.00 0.00 0.00 39 1009.9
20260506140049 80 149 8.0 12.0 0.00 0.00 0.00 40 1010.1
20260506134545 80 174 7.0 16.0 0.00 0.00 0.00 41 1010.1
20260506133058 80 178 8.0 12.0 0.00 0.00 0.00 42 1010.4
20260506131547 80 173 6.0 12.0 0.00 0.00 0.00 39 1010.6
20260506130052 80 254 2.0 13.0 0.00 0.00 0.00 41 1010.8
20260506124548 79 123 5.0 17.0 0.00 0.00 0.00 41 1011.0
20260506123049 79 173 4.0 18.0 0.00 0.00 0.00 42 1011.1
20260506121547 80 153 7.0 15.0 0.00 0.00 0.00 41 1011.3
20260506120047 79 148 10.0 14.0 0.00 0.00 0.00 49 1011.5
20260506114551 80 113 5.0 10.0 0.00 0.00 0.00 44 1011.7
20260506113048 79 219 4.0 12.0 0.00 0.00 0.00 44 1011.9
20260506111551 77 214 3.0 14.0 0.00 0.00 0.00 45 1012.0
20260506110049 78 188 8.0 15.0 0.00 0.00 0.00 47 1012.0
20260506104609 77 132 6.0 11.0 0.00 0.00 0.00 47 1012.1
20260506103047 77 132 6.0 14.0 0.00 0.00 0.00 47 1012.2
20260506101550 76 211 4.0 11.0 0.00 0.00 0.00 45 1012.4
20260506100047 76 163 9.0 14.0 0.00 0.00 0.00 46 1012.5
20260506094547 76 163 1.0 11.0 0.00 0.00 0.00 48 1012.8
20260506093046 75 159 7.0 12.0 0.00 0.00 0.00 45 1012.9
20260506091555 74 144 10.0 14.0 0.00 0.00 0.00 45 1012.9
20260506090052 74 123 4.0 10.0 0.00 0.00 0.00 49 1013.2
20260506084550 74 144 6.0 11.0 0.00 0.00 0.00 48 1013.1
20260506083051 74 153 5.0 10.0 0.00 0.00 0.00 52 1013.0
20260506081557 73 125 5.0 9.0 0.00 0.00 0.00 50 1013.0
20260506073051 71 159 4.0 10.0 0.00 0.00 0.00 53 1013.2
20260506071554 70 132 6.0 11.0 0.00 0.00 0.00 56 1013.4